Погода в Байките

Россия / Красноярский край     61°40′42″N   96°22′40″E
темп.,
°C
ветер,
м/с
пор.,
м/с
влажн.,
%
обл.,
%
осадки,
мм/ч
давл.,
гПа
погр.,
м
27 октября, ср
ср2701:00−6юв51495100 1.4 1002701
04:00−3ююв41497100 4.8 994938
07:000ю61698100 7.6 9891261
10:00−2юз81685100 2.2 9921634
13:00−4зюз91783100 2.7 9951804
16:00−7зюз91884100 0.3 10011534
19:00−8зюз81787100 0.6 10051519
22:00−8зюз81788100 0.4 10081549
28 октября, чт
чт2801:00−9зюз71687100 0.8 10111565
04:00−9зюз71587100 0.3 10131375
07:00−10зюз61389100 0.5 10151245
10:00−9зюз61388100 0.3 10181356
13:00−7з5118099 0.5 10191504
16:00−9з4118050 0.1 1022911
19:00−14з249871 0.1 102567
22:00−16з1110085 0.1 10279
29 октября, пт
пт2901:00−16в01100100 0.1 102810
04:00−15вюв1110099 0.0 102722
07:00−13вюв1299100 0.1 102546
10:00−9юв2494100 0.3 1023178
13:00−6ююв3793100 0.9 1020419
16:00−5ююв3996100 0.6 1018647
19:00−4ю31097100 2.0 1017833
22:00−5ю3997100 1.2 1017623
30 октября, сб
сб3001:00−6ююв2797100 1.7 1016261
04:00−6ююв2698100 0.3 1014232
07:00−6ююв2897100 0.8 1013317
10:00−5ююв3896100 0.8 1011340
13:00−1ю41097100 1.5 1009884
16:00−1ююз51192100 0.8 1008986
19:00−2ююз51295100 1.0 10071089
22:00−9зюз4118874 1.1 1013625
31 октября, вс
вс3101:00−12юз389699 1.2 1014395
04:00−10юз41193100 0.2 1014900
07:00−10юз51192100 0.4 10131033
10:00−9юз51289100 0.3 10131503
13:00−9юз51185100 0.9 10131379
16:00−10юз51087100 0.2 10131056
19:00−11юз41090100 0.4 1013730
22:00−13юз269899 0.1 1013258